Miscellaneous Local Product
Issued by NWS Hastings, NE

Home | Current Version | Previous Version | Text Only | Print | Product List | Glossary On
Versions: 1 2 3 4 5 6 7 8 9 10 11 12 13 14 15 16 17 18 19 20 21 22 23 24 25 26 27 28 29 30 31 32 33 34 35 36 37 38 39 40 41 42 43 44 45 46 47 48 49 50
000
AXUS43 KGID 220402
MISGRI

GID CWA HOURLY WEATHER ROUNDUP
NATIONAL WEATHER SERVICE HASTINGS NE
1100 PM CDT THU AUG 21 2014

NOTE: "FAIR" INDICATES FEW OR NO CLOUDS BELOW 12,000 FEET WITH NO
SIGNIFICANT WEATHER AND/OR OBSTRUCTIONS TO VISIBILITY.

...SOUTH CENTRAL NEBRASKA...

CITY           SKY/WX    TMP DP  RH WIND       PRES   REMARKS
GRAND ISLAND   PTCLDY    75  72  90 SW5       29.90F
HASTINGS       CLOUDY    76  65  68 MISG      29.91R
KEARNEY        PTCLDY    75  72  88 NE5       29.92S
ORD            PTCLDY    72  68  87 CALM      29.91F
YORK           CLOUDY    72 N/A N/A SE7       29.90S
AURORA         MOCLDY    72  71  95 SE13      29.90R
LEXINGTON      PTCLDY    74  71  89 CALM      29.93F
HOLDREGE       PTCLDY    74  72  91 CALM      29.93R
HEBRON         CLOUDY    78  68  72 CALM      29.90R

...NEBRASKA PANHANDLE...

CITY           SKY/WX    TMP DP  RH WIND       PRES   REMARKS
CHADRON        PTCLDY    72  53  51 W6        29.95R
ALLIANCE       PTCLDY    66  51  58 SE8       30.02R
SCOTTSBLUFF    PTCLDY    68  54  60 NW3       30.04R
SIDNEY         PTCLDY    66  56  70 SW6       30.07R

...WESTERN AND NORTH CENTRAL NEBRASKA...

CITY           SKY/WX    TMP DP  RH WIND       PRES   REMARKS
VALENTINE      MOCLDY    72  59  63 E6        29.96R
AINSWORTH      PTCLDY    70  64  79 E5        29.97S
ONEILL         MOCLDY    72  67  83 N5        29.93F
BROKEN BOW     CLEAR     73  65  75 E8        29.94F
IMPERIAL       CLEAR     70  60  70 E7        29.99R
NORTH PLATTE   CLEAR     68  62  81 SE5       29.97R
MCCOOK         CLEAR     73  65  75 E6        29.93F

...EASTERN NEBRASKA...

CITY           SKY/WX    TMP DP  RH WIND       PRES   REMARKS
NORFOLK        PTCLDY    76  72  87 CALM      29.90R
SO SIOUX CITY  CLEAR     78  74  87 CALM      29.86S
TEKAMAH        MOCLDY    76  72  87 CALM      29.87R
COLUMBUS       CLOUDY    52 N/A N/A N5        29.89F
ALBION         MOCLDY    76  71  84 CALM      29.92R
OMAHA EPPLEY   CLOUDY    82  75  79 CALM      29.85S
OFFUTT AFB     CLOUDY    80  80  99 N3        29.85S
MILLARD        CLOUDY    83  75  77 CALM      29.85S HX  91
LINCOLN        CLOUDY    83  73  72 SW6       29.89R
NEBRASKA CITY  CLOUDY    78  78 100 NE3       29.86R
BEATRICE       CLOUDY    78  76  94 NW6       29.88R
FALLS CITY     CLOUDY    85  72  65 SW5       29.84S HX  91

...NORTHERN KANSAS...

CITY           SKY/WX    TMP DP  RH WIND       PRES   REMARKS
GOODLAND       CLEAR     72  54  53 E5        30.00S
HILL CITY      CLEAR     81  67  62 N8        29.89S
NORTON         CLEAR     75  66  73 CALM      29.91R
PHILLIPSBURG   CLEAR     77  64  65 NE5       29.89R
SMITH CENTER   CLEAR     75  66  73 E8        29.89S
HAYS           PTCLDY    81  64  57 NE10      29.89R
RUSSELL        MOCLDY    80  68  66 NE9       29.88R
CONCORDIA      TSTM      71  69  93 S23G37    29.99R FOG
SALINA         PTCLDY    89  68  49 S14G22    29.87R HX  93
TOPEKA         PTCLDY    88  74  63 S15       29.88S HX  96



USA.gov is the U.S. government's official web portal to all federal, state and local government web resources and services.